Starlink 6118

operational
NORAD ID: 57106 Int'l Des: 2023-090 Owner: SPXS Country: US Constellation: starlink
LEOCIRCULAR

Über Starlink 6118

Beschreibung wird geladen...

Live-Position

3D-Globus wird geladen...

Nächste Überflüge

Höhenverlauf

Altitude vs Time

uPlot chart will show altitude changes over time

Zweizeiliger Elementsatz

1 57106U 23090F 25349.74721660 .00001112 00000-0 97410-4 0 9999
2 57106 43.0066 10.9927 0001707 277.7441 82.3207 15.02535458137781
Epoch: 15. Dez. 2025 • Age: 12 hours

Aktueller Status

Höhe 561.2 km
Geschwindigkeit 7.58 km/s
Subsatellitenpunkt -12.61°S, 27.22°E
Startdatum 23. Juni 2023
Alter 2.4 years
Typ internet

Technische Details

Klassifizierung Payload
Masse 305.00 kg
Trockenmasse 290.00 kg
Gesamtmasse 305.00 kg
Länge 0.20 m
Durchmesser 2.80 m
Spannweite 9.00 m
Form Box + pan
Hersteller SPXS
Bus-Typ Starlink
Phasenstatus In Orbit
Besitzer/Staat SPXS/US

Große Konstellationen

Loading constellations...